Location: Praha
(50.0830°N, 14.4670°E)
Time: 10:46:21
(UTC+02:00)

ISS - Pass Details

Date: 19 May 2019
Orbit: 407 x 410 km, 51.6° (Epoch: 21 May)

Event Time Altitude Azimuth Distance (km) Brightness Sun altitude
Rises 23:37:30 0° 260° (W) 2,331 0.2 -17.8°
Reaches altitude 10° 23:39:35 10° 262° (W) 1,471 -0.9 -17.9°
Maximum altitude 23:42:53 77° 348° (NNW) 425 -3.7 -18.1°
Drops below altitude 10° 23:46:12 10° 75° (ENE) 1,476 -1.0 -18.2°
Sets 23:48:18 0° 77° (ENE) 2,338 0.0 -18.3°
